Time,TemperatureF,DewpointF,PressureIn,WindDirection,WindDirectionDegrees,WindSpeedMPH,WindSpeedGustMPH,Humidity,HourlyPrecipIn,Conditions,Clouds,dailyrainin,SoftwareType,DateUTC
2013-03-19 00:00:00,27.3,24.0,30.22,East,84,5.0,8.0,87,0.00,,,0.00,VWS V14.01,2013-03-19 04:00:00,
2013-03-19 00:01:00,27.3,24.0,30.22,East,88,3.0,8.0,87,0.00,,,0.00,VWS V14.01,2013-03-19 04:01:00,
2013-03-19 00:06:00,27.1,24.0,30.22,East,79,3.0,8.0,88,0.00,,,0.00,VWS V14.01,2013-03-19 04:06:00,
2013-03-19 00:11:00,27.0,24.2,30.21,ENE,59,3.0,8.0,89,0.00,,,0.00,VWS V14.01,2013-03-19 04:11:00,
2013-03-19 00:16:00,26.9,24.1,30.21,East,96,3.0,8.0,89,0.00,,,0.00,VWS V14.01,2013-03-19 04:16:00,
2013-03-19 00:21:00,26.8,24.3,30.21,East,96,6.0,8.0,90,0.00,,,0.00,VWS V14.01,2013-03-19 04:21:00,
2013-03-19 00:26:00,26.8,24.3,30.20,East,96,5.0,8.0,90,0.00,,,0.00,VWS V14.01,2013-03-19 04:26:00,
2013-03-19 00:31:00,26.8,24.5,30.20,East,80,2.0,8.0,91,0.00,,,0.00,VWS V14.01,2013-03-19 04:31:00,
2013-03-19 00:36:00,26.6,24.3,30.20,ENE,70,3.0,7.0,91,0.00,,,0.00,VWS V14.01,2013-03-19 04:36:00,
2013-03-19 00:41:00,26.6,24.3,30.19,ENE,67,5.0,8.0,91,0.00,,,0.00,VWS V14.01,2013-03-19 04:41:00,
2013-03-19 00:46:00,26.5,24.5,30.18,East,81,6.0,8.0,92,0.00,,,0.00,VWS V14.01,2013-03-19 04:46:00,
2013-03-19 00:51:00,26.5,24.5,30.17,ENE,71,4.0,9.0,92,0.00,,,0.00,VWS V14.01,2013-03-19 04:51:00,
2013-03-19 00:56:00,26.4,24.4,30.17,East,86,6.0,9.0,92,0.00,,,0.00,VWS V14.01,2013-03-19 04:56:00,
2013-03-19 01:01:00,26.3,24.3,30.17,East,87,9.0,10.0,92,0.00,,,0.00,VWS V14.01,2013-03-19 05:01:00,
2013-03-19 01:06:00,26.3,24.3,30.17,SE,124,6.0,8.0,92,0.00,,,0.00,VWS V14.01,2013-03-19 05:06:00,
2013-03-19 01:11:00,26.2,24.2,30.16,East,90,5.0,9.0,92,0.00,,,0.00,VWS V14.01,2013-03-19 05:11:00,
2013-03-19 01:16:00,26.2,24.2,30.16,East,84,3.0,9.0,92,0.00,,,0.00,VWS V14.01,2013-03-19 05:16:00,
2013-03-19 01:21:00,26.2,24.2,30.15,ENE,74,4.0,9.0,92,0.00,,,0.00,VWS V14.01,2013-03-19 05:21:00,
2013-03-19 01:26:00,26.3,24.6,30.15,ENE,72,5.0,9.0,93,0.00,,,0.00,VWS V14.01,2013-03-19 05:26:00,
2013-03-19 01:31:00,26.3,24.6,30.15,ENE,71,4.0,9.0,93,0.00,,,0.00,VWS V14.01,2013-03-19 05:31:00,
2013-03-19 01:36:00,26.2,24.5,30.15,East,85,6.0,6.0,93,0.00,,,0.00,VWS V14.01,2013-03-19 05:36:00,
2013-03-19 01:41:00,26.3,24.6,30.14,ENE,78,5.0,8.0,93,0.00,,,0.00,VWS V14.01,2013-03-19 05:41:00,
2013-03-19 01:46:00,26.2,24.5,30.14,East,80,6.0,8.0,93,0.00,,,0.00,VWS V14.01,2013-03-19 05:46:00,
2013-03-19 01:51:00,26.2,24.5,30.14,East,79,5.0,9.0,93,0.00,,,0.00,VWS V14.01,2013-03-19 05:51:00,
2013-03-19 01:56:00,26.2,24.5,30.14,East,82,6.0,9.0,93,0.00,,,0.00,VWS V14.01,2013-03-19 05:56:00,
2013-03-19 02:02:00,26.2,24.5,30.13,East,94,5.0,9.0,93,0.00,,,0.00,VWS V14.01,2013-03-19 06:02:00,
2013-03-19 02:07:00,26.2,24.5,30.13,East,86,5.0,5.0,93,0.00,,,0.00,VWS V14.01,2013-03-19 06:07:00,
2013-03-19 02:12:00,26.2,24.5,30.13,East,81,3.0,7.0,93,0.00,,,0.00,VWS V14.01,2013-03-19 06:12:00,
2013-03-19 02:17:00,26.2,24.5,30.12,ENE,78,7.0,7.0,93,0.00,,,0.00,VWS V14.01,2013-03-19 06:17:00,
2013-03-19 02:22:00,26.2,24.5,30.12,ENE,65,7.0,8.0,93,0.00,,,0.00,VWS V14.01,2013-03-19 06:22:00,
2013-03-19 02:27:00,26.2,24.5,30.12,East,94,6.0,8.0,93,0.00,,,0.00,VWS V14.01,2013-03-19 06:27:00,
2013-03-19 02:32:00,26.2,24.5,30.11,East,92,8.0,10.0,93,0.00,,,0.00,VWS V14.01,2013-03-19 06:32:00,
2013-03-19 02:37:00,26.2,24.5,30.10,East,80,6.0,8.0,93,0.00,,,0.00,VWS V14.01,2013-03-19 06:37:00,
2013-03-19 02:42:00,26.2,24.5,30.10,ENE,74,7.0,9.0,93,0.00,,,0.00,VWS V14.01,2013-03-19 06:42:00,
2013-03-19 02:47:00,26.2,24.5,30.10,ENE,58,5.0,9.0,93,0.00,,,0.00,VWS V14.01,2013-03-19 06:47:00,
2013-03-19 02:52:00,26.3,24.6,30.10,East,84,7.0,10.0,93,0.00,,,0.00,VWS V14.01,2013-03-19 06:52:00,
2013-03-19 02:57:00,26.3,24.6,30.10,East,82,5.0,10.0,93,0.00,,,0.00,VWS V14.01,2013-03-19 06:57:00,
2013-03-19 03:02:00,26.3,24.8,30.09,ENE,74,5.0,10.0,94,0.00,,,0.00,VWS V14.01,2013-03-19 07:02:00,
2013-03-19 03:07:00,26.3,24.8,30.09,ENE,71,4.0,8.0,94,0.00,,,0.00,VWS V14.01,2013-03-19 07:07:00,
2013-03-19 03:12:00,26.4,24.9,30.09,ENE,67,4.0,8.0,94,0.00,,,0.00,VWS V14.01,2013-03-19 07:12:00,
2013-03-19 03:17:00,26.4,24.9,30.09,ESE,111,5.0,8.0,94,0.00,,,0.00,VWS V14.01,2013-03-19 07:17:00,
2013-03-19 03:22:00,26.5,25.0,30.09,East,94,5.0,8.0,94,0.00,,,0.00,VWS V14.01,2013-03-19 07:22:00,
2013-03-19 03:27:00,26.5,25.0,30.09,ENE,77,4.0,8.0,94,0.00,,,0.00,VWS V14.01,2013-03-19 07:27:00,
2013-03-19 03:32:00,26.5,25.0,30.08,ENE,76,5.0,9.0,94,0.00,,,0.00,VWS V14.01,2013-03-19 07:32:00,
2013-03-19 03:37:00,26.6,25.1,30.08,East,90,6.0,8.0,94,0.00,,,0.00,VWS V14.01,2013-03-19 07:37:00,
2013-03-19 03:42:00,26.6,25.1,30.08,ENE,61,5.0,8.0,94,0.00,,,0.00,VWS V14.01,2013-03-19 07:42:00,
2013-03-19 03:47:00,26.6,25.1,30.08,ENE,61,4.0,8.0,94,0.00,,,0.00,VWS V14.01,2013-03-19 07:47:00,
2013-03-19 03:52:00,26.7,25.2,30.07,East,90,5.0,9.0,94,0.00,,,0.00,VWS V14.01,2013-03-19 07:52:00,
2013-03-19 03:57:00,26.7,25.2,30.07,East,90,9.0,9.0,94,0.00,,,0.00,VWS V14.01,2013-03-19 07:57:00,
2013-03-19 04:02:00,26.7,25.2,30.06,East,85,6.0,9.0,94,0.00,,,0.00,VWS V14.01,2013-03-19 08:02:00,
2013-03-19 04:07:00,26.7,25.2,30.05,ENE,70,5.0,8.0,94,0.00,,,0.00,VWS V14.01,2013-03-19 08:07:00,
2013-03-19 04:12:00,26.8,25.3,30.05,ENE,61,8.0,10.0,94,0.00,,,0.00,VWS V14.01,2013-03-19 08:12:00,
2013-03-19 04:17:00,26.9,25.4,30.06,ESE,109,7.0,10.0,94,0.00,,,0.00,VWS V14.01,2013-03-19 08:17:00,
2013-03-19 04:22:00,26.9,25.4,30.05,ENE,76,3.0,10.0,94,0.00,,,0.00,VWS V14.01,2013-03-19 08:22:00,
2013-03-19 04:27:00,27.0,25.5,30.05,ENE,74,7.0,10.0,94,0.00,,,0.00,VWS V14.01,2013-03-19 08:27:00,
2013-03-19 04:32:00,27.0,25.5,30.05,East,84,11.0,11.0,94,0.00,,,0.00,VWS V14.01,2013-03-19 08:32:00,
2013-03-19 04:37:00,27.0,25.5,30.05,East,80,6.0,8.0,94,0.00,,,0.00,VWS V14.01,2013-03-19 08:37:00,
2013-03-19 04:42:00,27.1,25.6,30.06,East,82,7.0,8.0,94,0.00,,,0.00,VWS V14.01,2013-03-19 08:42:00,
2013-03-19 04:47:00,27.1,25.6,30.06,East,87,9.0,9.0,94,0.00,,,0.00,VWS V14.01,2013-03-19 08:47:00,
2013-03-19 04:52:00,27.2,25.7,30.06,East,80,3.0,9.0,94,0.00,,,0.00,VWS V14.01,2013-03-19 08:52:00,
2013-03-19 04:57:00,27.2,25.7,30.05,East,98,7.0,9.0,94,0.00,,,0.00,VWS V14.01,2013-03-19 08:57:00,
2013-03-19 05:02:00,27.2,25.7,30.05,East,93,6.0,9.0,94,0.00,,,0.00,VWS V14.01,2013-03-19 09:02:00,
2013-03-19 05:07:00,27.2,25.7,30.05,East,84,9.0,9.0,94,0.00,,,0.00,VWS V14.01,2013-03-19 09:07:00,
2013-03-19 05:12:00,27.3,25.8,30.04,ESE,121,8.0,9.0,94,0.00,,,0.00,VWS V14.01,2013-03-19 09:12:00,
2013-03-19 05:17:00,27.4,25.9,30.04,East,82,5.0,10.0,94,0.00,,,0.00,VWS V14.01,2013-03-19 09:17:00,
2013-03-19 05:22:00,27.5,26.0,30.04,ESE,109,10.0,11.0,94,0.00,,,0.00,VWS V14.01,2013-03-19 09:22:00,
2013-03-19 05:27:00,27.5,26.0,30.04,ENE,74,5.0,11.0,94,0.00,,,0.00,VWS V14.01,2013-03-19 09:27:00,
2013-03-19 05:32:00,27.6,26.1,30.03,ENE,67,7.0,11.0,94,0.00,,,0.00,VWS V14.01,2013-03-19 09:32:00,
2013-03-19 05:37:00,27.7,26.2,30.03,ENE,68,7.0,9.0,94,0.00,,,0.00,VWS V14.01,2013-03-19 09:37:00,
2013-03-19 05:42:00,27.7,26.5,30.03,East,86,11.0,11.0,95,0.00,,,0.00,VWS V14.01,2013-03-19 09:42:00,
2013-03-19 05:47:00,27.8,26.6,30.02,East,85,7.0,11.0,95,0.00,,,0.00,VWS V14.01,2013-03-19 09:47:00,
2013-03-19 05:52:00,27.9,26.7,30.02,ENE,77,7.0,11.0,95,0.00,,,0.00,VWS V14.01,2013-03-19 09:52:00,
2013-03-19 05:57:00,28.0,26.8,30.02,ENE,76,9.0,11.0,95,0.00,,,0.00,VWS V14.01,2013-03-19 09:57:00,
2013-03-19 06:02:00,28.0,26.8,30.02,East,82,7.0,11.0,95,0.00,,,0.00,VWS V14.01,2013-03-19 10:02:00,
2013-03-19 06:07:00,28.1,26.9,30.01,ESE,115,9.0,12.0,95,0.00,,,0.00,VWS V14.01,2013-03-19 10:07:00,
2013-03-19 06:12:00,28.2,27.0,30.00,NE,53,8.0,12.0,95,0.00,,,0.00,VWS V14.01,2013-03-19 10:12:00,
2013-03-19 06:17:00,28.3,27.0,30.01,East,84,6.0,15.0,95,0.00,,,0.00,VWS V14.01,2013-03-19 10:17:00,
2013-03-19 06:22:00,28.4,27.1,30.01,ENE,76,7.0,15.0,95,0.00,,,0.00,VWS V14.01,2013-03-19 10:22:00,
2013-03-19 06:27:00,28.5,27.2,30.00,ENE,65,7.0,15.0,95,0.00,,,0.00,VWS V14.01,2013-03-19 10:27:00,
2013-03-19 06:32:00,28.5,27.2,30.00,ENE,64,5.0,15.0,95,0.00,,,0.00,VWS V14.01,2013-03-19 10:32:00,
2013-03-19 06:37:00,28.6,27.4,30.00,East,80,9.0,11.0,95,0.00,,,0.00,VWS V14.01,2013-03-19 10:37:00,
2013-03-19 06:42:00,28.7,27.5,30.00,East,80,9.0,11.0,95,0.00,,,0.00,VWS V14.01,2013-03-19 10:42:00,
2013-03-19 06:47:00,28.8,27.5,30.00,ENE,72,8.0,11.0,95,0.00,,,0.00,VWS V14.01,2013-03-19 10:47:00,
2013-03-19 06:52:00,28.9,27.6,30.00,East,88,9.0,12.0,95,0.00,,,0.00,VWS V14.01,2013-03-19 10:52:00,
2013-03-19 06:57:00,29.0,27.8,30.00,East,80,8.0,15.0,95,0.00,,,0.00,VWS V14.01,2013-03-19 10:57:00,
2013-03-19 07:02:00,29.0,27.8,29.99,East,90,11.0,15.0,95,0.00,,,0.00,VWS V14.01,2013-03-19 11:02:00,
2013-03-19 07:07:00,29.1,27.9,29.99,East,92,8.0,11.0,95,0.00,,,0.00,VWS V14.01,2013-03-19 11:07:00,
2013-03-19 07:12:00,29.1,27.9,29.99,East,84,8.0,13.0,95,0.00,,,0.00,VWS V14.01,2013-03-19 11:12:00,
2013-03-19 07:17:00,29.1,27.9,29.98,East,81,5.0,13.0,95,0.00,,,0.00,VWS V14.01,2013-03-19 11:17:00,
2013-03-19 07:22:00,29.2,28.0,29.98,ESE,110,8.0,13.0,95,0.00,,,0.00,VWS V14.01,2013-03-19 11:22:00,
2013-03-19 07:27:00,29.3,28.0,29.98,East,98,11.0,15.0,95,0.00,,,0.00,VWS V14.01,2013-03-19 11:27:00,
2013-03-19 07:32:00,29.3,28.0,29.98,East,87,7.0,15.0,95,0.00,,,0.00,VWS V14.01,2013-03-19 11:32:00,
2013-03-19 07:37:00,29.4,28.1,29.98,East,92,7.0,10.0,95,0.00,,,0.00,VWS V14.01,2013-03-19 11:37:00,
2013-03-19 07:42:00,29.5,28.2,29.97,ESE,111,9.0,14.0,95,0.00,,,0.00,VWS V14.01,2013-03-19 11:42:00,
2013-03-19 07:47:00,29.5,28.2,29.97,East,80,11.0,14.0,95,0.00,,,0.00,VWS V14.01,2013-03-19 11:47:00,
2013-03-19 07:52:00,29.6,28.4,29.97,East,83,8.0,14.0,95,0.00,,,0.00,VWS V14.01,2013-03-19 11:52:00,
2013-03-19 07:57:00,29.7,28.5,29.96,East,81,9.0,15.0,95,0.00,,,0.00,VWS V14.01,2013-03-19 11:57:00,
2013-03-19 08:02:00,29.7,28.5,29.96,East,82,6.0,15.0,95,0.00,,,0.00,VWS V14.01,2013-03-19 12:02:00,
2013-03-19 08:07:00,29.8,28.5,29.96,East,84,7.0,15.0,95,0.00,,,0.00,VWS V14.01,2013-03-19 12:07:00,
2013-03-19 08:12:00,29.8,28.5,29.95,ENE,76,7.0,15.0,95,0.00,,,0.00,VWS V14.01,2013-03-19 12:12:00,
2013-03-19 08:17:00,29.9,28.6,29.95,East,95,6.0,15.0,95,0.00,,,0.00,VWS V14.01,2013-03-19 12:17:00,
2013-03-19 08:22:00,29.9,28.6,29.95,ENE,68,5.0,15.0,95,0.00,,,0.00,VWS V14.01,2013-03-19 12:22:00,
2013-03-19 08:27:00,30.0,28.7,29.95,East,81,9.0,16.0,95,0.00,,,0.00,VWS V14.01,2013-03-19 12:27:00,
2013-03-19 08:32:00,30.1,28.8,29.94,East,80,6.0,16.0,95,0.00,,,0.00,VWS V14.01,2013-03-19 12:32:00,
2013-03-19 08:37:00,30.1,28.8,29.94,ENE,74,8.0,11.0,95,0.00,,,0.00,VWS V14.01,2013-03-19 12:37:00,
2013-03-19 08:42:00,30.2,28.9,29.93,East,80,8.0,17.0,95,0.00,,,0.00,VWS V14.01,2013-03-19 12:42:00,
2013-03-19 08:47:00,30.3,29.0,29.93,East,83,10.0,17.0,95,0.00,,,0.00,VWS V14.01,2013-03-19 12:47:00,
2013-03-19 08:52:00,30.4,29.1,29.93,East,98,7.0,17.0,95,0.00,,,0.00,VWS V14.01,2013-03-19 12:52:00,
2013-03-19 08:57:00,30.5,29.2,29.93,East,94,7.0,17.0,95,0.00,,,0.00,VWS V14.01,2013-03-19 12:57:00,
2013-03-19 09:02:00,30.5,29.2,29.92,ENE,61,7.0,17.0,95,0.00,,,0.00,VWS V14.01,2013-03-19 13:02:00,
2013-03-19 09:07:00,30.5,29.2,29.92,ENE,77,8.0,13.0,95,0.00,,,0.00,VWS V14.01,2013-03-19 13:07:00,
2013-03-19 09:12:00,30.7,29.4,29.92,ENE,76,7.0,17.0,95,0.00,,,0.00,VWS V14.01,2013-03-19 13:12:00,
2013-03-19 09:17:00,30.7,29.4,29.92,ENE,66,7.0,17.0,95,0.00,,,0.00,VWS V14.01,2013-03-19 13:17:00,
2013-03-19 09:22:00,30.8,29.5,29.92,ENE,75,8.0,17.0,95,0.00,,,0.00,VWS V14.01,2013-03-19 13:22:00,
2013-03-19 09:27:00,30.8,29.5,29.91,ENE,76,4.0,17.0,95,0.00,,,0.00,VWS V14.01,2013-03-19 13:27:00,
2013-03-19 09:32:00,30.8,29.5,29.91,East,89,10.0,17.0,95,0.00,,,0.00,VWS V14.01,2013-03-19 13:32:00,
2013-03-19 09:37:00,30.8,29.5,29.91,ENE,74,8.0,14.0,95,0.00,,,0.00,VWS V14.01,2013-03-19 13:37:00,
2013-03-19 09:42:00,30.9,29.6,29.91,ENE,70,8.0,14.0,95,0.00,,,0.00,VWS V14.01,2013-03-19 13:42:00,
2013-03-19 09:47:00,31.0,29.7,29.90,East,90,10.0,14.0,95,0.00,,,0.00,VWS V14.01,2013-03-19 13:47:00,
2013-03-19 09:52:00,31.0,29.7,29.90,ENE,72,7.0,14.0,95,0.00,,,0.00,VWS V14.01,2013-03-19 13:52:00,
2013-03-19 09:57:00,31.1,29.8,29.90,ENE,65,7.0,14.0,95,0.00,,,0.00,VWS V14.01,2013-03-19 13:57:00,
2013-03-19 10:02:00,31.2,29.9,29.89,ENE,71,4.0,14.0,95,0.00,,,0.00,VWS V14.01,2013-03-19 14:02:00,
2013-03-19 10:07:00,31.2,29.9,29.89,East,81,7.0,11.0,95,0.00,,,0.00,VWS V14.01,2013-03-19 14:07:00,
2013-03-19 10:12:00,31.3,30.0,29.89,ENE,61,8.0,11.0,95,0.00,,,0.00,VWS V14.01,2013-03-19 14:12:00,
2013-03-19 10:17:00,31.3,30.0,29.88,ENE,63,9.0,12.0,95,0.00,,,0.00,VWS V14.01,2013-03-19 14:17:00,
2013-03-19 10:22:00,31.4,30.1,29.88,East,89,6.0,12.0,95,0.00,,,0.00,VWS V14.01,2013-03-19 14:22:00,
2013-03-19 10:27:00,31.4,30.1,29.88,ENE,69,10.0,12.0,95,0.00,,,0.00,VWS V14.01,2013-03-19 14:27:00,
2013-03-19 10:32:00,31.4,30.1,29.88,East,89,10.0,14.0,95,0.00,,,0.00,VWS V14.01,2013-03-19 14:32:00,
2013-03-19 10:37:00,31.5,30.2,29.88,ENE,57,7.0,13.0,95,0.00,,,0.00,VWS V14.01,2013-03-19 14:37:00,
2013-03-19 10:42:00,31.6,30.3,29.87,ENE,77,5.0,13.0,95,0.00,,,0.00,VWS V14.01,2013-03-19 14:42:00,
2013-03-19 10:47:00,31.6,30.3,29.88,East,90,7.0,13.0,95,0.00,,,0.00,VWS V14.01,2013-03-19 14:47:00,
2013-03-19 10:52:00,31.6,30.3,29.87,East,79,10.0,13.0,95,0.00,,,0.00,VWS V14.01,2013-03-19 14:52:00,
2013-03-19 10:57:00,31.6,30.3,29.86,ENE,67,10.0,13.0,95,0.00,,,0.00,VWS V14.01,2013-03-19 14:57:00,
2013-03-19 11:02:00,31.7,30.4,29.86,East,84,7.0,13.0,95,0.00,,,0.00,VWS V14.01,2013-03-19 15:02:00,
2013-03-19 11:07:00,31.7,30.4,29.86,ENE,76,9.0,15.0,95,0.00,,,0.00,VWS V14.01,2013-03-19 15:07:00,
2013-03-19 11:12:00,31.8,30.5,29.85,ENE,67,10.0,15.0,95,0.00,,,0.00,VWS V14.01,2013-03-19 15:12:00,
2013-03-19 11:17:00,31.9,30.6,29.84,East,92,7.0,15.0,95,0.00,,,0.00,VWS V14.01,2013-03-19 15:17:00,
2013-03-19 11:22:00,32.0,31.0,29.83,ENE,64,10.0,15.0,96,0.00,,,0.00,VWS V14.01,2013-03-19 15:22:00,
2013-03-19 11:27:00,32.1,30.8,29.83,ENE,74,9.0,15.0,95,0.00,,,0.00,VWS V14.01,2013-03-19 15:27:00,
2013-03-19 11:32:00,32.2,30.9,29.83,ENE,74,7.0,15.0,95,0.00,,,0.00,VWS V14.01,2013-03-19 15:32:00,
2013-03-19 11:37:00,32.2,30.9,29.82,ENE,69,5.0,12.0,95,0.00,,,0.00,VWS V14.01,2013-03-19 15:37:00,
2013-03-19 11:42:00,32.2,30.9,29.82,ENE,68,5.0,12.0,95,0.00,,,0.00,VWS V14.01,2013-03-19 15:42:00,
2013-03-19 11:47:00,32.3,31.0,29.82,East,98,8.0,12.0,95,0.00,,,0.00,VWS V14.01,2013-03-19 15:47:00,
2013-03-19 11:52:00,32.4,31.1,29.81,East,80,9.0,12.0,95,0.00,,,0.00,VWS V14.01,2013-03-19 15:52:00,
2013-03-19 11:58:00,32.4,31.1,29.81,ENE,69,10.0,12.0,95,0.00,,,0.00,VWS V14.01,2013-03-19 15:58:00,
2013-03-19 12:03:00,32.4,31.1,29.81,ENE,76,4.0,12.0,95,0.00,,,0.00,VWS V14.01,2013-03-19 16:03:00,
2013-03-19 12:08:00,32.5,31.2,29.81,ENE,77,7.0,10.0,95,0.00,,,0.00,VWS V14.01,2013-03-19 16:08:00,
2013-03-19 12:12:00,32.5,31.2,29.81,ENE,66,9.0,12.0,95,0.00,,,0.00,VWS V14.01,2013-03-19 16:12:00,
2013-03-19 12:17:00,32.6,31.3,29.81,ENE,76,5.0,12.0,95,0.00,,,0.00,VWS V14.01,2013-03-19 16:17:00,
2013-03-19 12:22:00,32.6,31.3,29.80,East,85,7.0,12.0,95,0.00,,,0.00,VWS V14.01,2013-03-19 16:22:00,
2013-03-19 12:27:00,32.6,31.3,29.80,NE,53,3.0,12.0,95,0.00,,,0.00,VWS V14.01,2013-03-19 16:27:00,
2013-03-19 12:32:00,32.6,31.3,29.79,NE,55,8.0,12.0,95,0.00,,,0.00,VWS V14.01,2013-03-19 16:32:00,
2013-03-19 12:37:00,32.7,31.4,29.79,NE,43,7.0,11.0,95,0.00,,,0.00,VWS V14.01,2013-03-19 16:37:00,
2013-03-19 12:42:00,32.7,31.4,29.78,ENE,74,9.0,11.0,95,0.00,,,0.00,VWS V14.01,2013-03-19 16:42:00,
2013-03-19 12:47:00,32.6,31.3,29.77,ENE,57,4.0,11.0,95,0.01,,,0.01,VWS V14.01,2013-03-19 16:47:00,
2013-03-19 12:52:00,32.6,31.6,29.77,East,90,6.0,11.0,96,0.01,,,0.01,VWS V14.01,2013-03-19 16:52:00,
2013-03-19 12:57:00,32.6,31.6,29.77,East,80,7.0,11.0,96,0.01,,,0.01,VWS V14.01,2013-03-19 16:57:00,
2013-03-19 13:02:00,32.5,31.2,29.76,ESE,107,9.0,11.0,95,0.01,,,0.01,VWS V14.01,2013-03-19 17:02:00,
2013-03-19 13:07:00,32.5,31.2,29.76,East,84,10.0,11.0,95,0.01,,,0.01,VWS V14.01,2013-03-19 17:07:00,
2013-03-19 13:12:00,32.5,31.2,29.76,East,92,7.0,12.0,95,0.01,,,0.01,VWS V14.01,2013-03-19 17:12:00,
2013-03-19 13:17:00,32.5,31.5,29.75,ENE,60,5.0,12.0,96,0.01,,,0.01,VWS V14.01,2013-03-19 17:17:00,
2013-03-19 13:22:00,32.5,31.5,29.74,ENE,70,8.0,12.0,96,0.01,,,0.01,VWS V14.01,2013-03-19 17:22:00,
2013-03-19 13:27:00,32.4,31.4,29.75,NE,42,3.0,12.0,96,0.02,,,0.02,VWS V14.01,2013-03-19 17:27:00,
2013-03-19 13:32:00,32.3,31.3,29.75,ENE,74,4.0,12.0,96,0.02,,,0.02,VWS V14.01,2013-03-19 17:32:00,
2013-03-19 13:37:00,32.4,31.4,29.74,East,86,8.0,10.0,96,0.02,,,0.02,VWS V14.01,2013-03-19 17:37:00,
2013-03-19 13:42:00,32.4,31.4,29.74,NE,55,5.0,10.0,96,0.02,,,0.02,VWS V14.01,2013-03-19 17:42:00,
2013-03-19 13:47:00,32.3,31.3,29.75,ENE,65,4.0,10.0,96,0.02,,,0.02,VWS V14.01,2013-03-19 17:47:00,
2013-03-19 13:52:00,32.3,31.3,29.76,NE,49,4.0,10.0,96,0.02,,,0.02,VWS V14.01,2013-03-19 17:52:00,
2013-03-19 13:57:00,32.4,31.4,29.78,NW,316,4.0,10.0,96,0.02,,,0.02,VWS V14.01,2013-03-19 17:57:00,
2013-03-19 14:02:00,32.5,31.5,29.80,WNW,301,5.0,10.0,96,0.02,,,0.02,VWS V14.01,2013-03-19 18:02:00,
2013-03-19 14:07:00,32.5,31.5,29.80,NNW,346,5.0,8.0,96,0.01,,,0.02,VWS V14.01,2013-03-19 18:07:00,
2013-03-19 14:12:00,32.5,31.5,29.78,NNW,345,5.0,10.0,96,0.01,,,0.02,VWS V14.01,2013-03-19 18:12:00,
2013-03-19 14:17:00,32.5,31.5,29.77,ENE,63,2.0,10.0,96,0.02,,,0.03,VWS V14.01,2013-03-19 18:17:00,
2013-03-19 14:22:00,32.4,31.4,29.77,NE,55,3.0,10.0,96,0.02,,,0.03,VWS V14.01,2013-03-19 18:22:00,
2013-03-19 14:27:00,32.4,31.4,29.76,NNE,27,1.0,10.0,96,0.02,,,0.03,VWS V14.01,2013-03-19 18:27:00,
2013-03-19 14:32:00,32.3,31.3,29.76,North,360,5.0,10.0,96,0.02,,,0.03,VWS V14.01,2013-03-19 18:32:00,
2013-03-19 14:37:00,32.3,31.0,29.76,NE,34,4.0,11.0,95,0.01,,,0.03,VWS V14.01,2013-03-19 18:37:00,
2013-03-19 14:42:00,32.3,31.0,29.75,NE,34,3.0,14.0,95,0.01,,,0.03,VWS V14.01,2013-03-19 18:42:00,
2013-03-19 14:47:00,32.4,31.1,29.75,NNE,15,6.0,14.0,95,0.01,,,0.03,VWS V14.01,2013-03-19 18:47:00,
2013-03-19 14:52:00,32.3,31.0,29.74,ENE,76,3.0,14.0,95,0.01,,,0.03,VWS V14.01,2013-03-19 18:52:00,
2013-03-19 14:57:00,32.3,31.0,29.75,North,10,5.0,14.0,95,0.01,,,0.03,VWS V14.01,2013-03-19 18:57:00,
2013-03-19 15:03:00,32.2,30.9,29.75,ENE,71,0.0,14.0,95,0.01,,,0.03,VWS V14.01,2013-03-19 19:03:00,
2013-03-19 15:07:00,32.2,30.9,29.75,NNE,28,0.0,0.0,95,0.01,,,0.03,VWS V14.01,2013-03-19 19:07:00,
2013-03-19 15:12:00,32.1,30.8,29.72,ENE,59,0.0,0.0,95,0.01,,,0.03,VWS V14.01,2013-03-19 19:12:00,
2013-03-19 15:17:00,32.0,30.7,29.72,NE,54,0.0,0.0,95,0.01,,,0.03,VWS V14.01,2013-03-19 19:17:00,
2013-03-19 15:22:00,32.0,30.7,29.70,ENE,74,0.0,0.0,95,0.01,,,0.03,VWS V14.01,2013-03-19 19:22:00,
2013-03-19 15:27:00,32.0,30.7,29.67,NNE,26,0.0,0.0,95,0.01,,,0.03,VWS V14.01,2013-03-19 19:27:00,
2013-03-19 15:33:00,32.1,30.8,29.67,NE,40,0.0,0.0,95,0.01,,,0.03,VWS V14.01,2013-03-19 19:33:00,
2013-03-19 15:38:00,32.3,31.0,29.68,NE,47,0.0,0.0,95,0.00,,,0.03,VWS V14.01,2013-03-19 19:38:00,
2013-03-19 15:43:00,32.4,31.1,29.69,NNE,15,0.0,0.0,95,0.00,,,0.03,VWS V14.01,2013-03-19 19:43:00,
2013-03-19 15:48:00,32.6,31.3,29.68,ENE,67,0.0,0.0,95,0.01,,,0.04,VWS V14.01,2013-03-19 19:48:00,
2013-03-19 15:53:00,32.6,31.1,29.68,NE,49,0.0,0.0,94,0.01,,,0.04,VWS V14.01,2013-03-19 19:53:00,
2013-03-19 15:57:00,32.6,31.1,29.68,ENE,78,9.0,10.0,94,0.01,,,0.04,VWS V14.01,2013-03-19 19:57:00,
2013-03-19 16:03:00,32.6,31.1,29.67,ENE,60,10.0,12.0,94,0.01,,,0.04,VWS V14.01,2013-03-19 20:03:00,
2013-03-19 16:07:00,32.5,31.0,29.67,ENE,65,9.0,14.0,94,0.01,,,0.04,VWS V14.01,2013-03-19 20:07:00,
2013-03-19 16:12:00,32.3,30.8,29.67,East,101,10.0,14.0,94,0.01,,,0.04,VWS V14.01,2013-03-19 20:12:00,
2013-03-19 16:17:00,32.2,30.7,29.67,NNE,24,5.0,14.0,94,0.01,,,0.04,VWS V14.01,2013-03-19 20:17:00,
2013-03-19 16:22:00,32.2,30.7,29.66,NE,38,9.0,14.0,94,0.01,,,0.04,VWS V14.01,2013-03-19 20:22:00,
2013-03-19 16:27:00,32.2,30.7,29.66,NE,47,8.0,14.0,94,0.02,,,0.05,VWS V14.01,2013-03-19 20:27:00,
2013-03-19 16:32:00,32.2,30.7,29.66,ENE,68,8.0,14.0,94,0.02,,,0.05,VWS V14.01,2013-03-19 20:32:00,
2013-03-19 16:37:00,32.2,30.7,29.66,ENE,70,10.0,10.0,94,0.02,,,0.05,VWS V14.01,2013-03-19 20:37:00,
2013-03-19 16:42:00,32.1,30.6,29.66,NNE,13,4.0,10.0,94,0.02,,,0.05,VWS V14.01,2013-03-19 20:42:00,
2013-03-19 16:48:00,32.1,30.8,29.66,ENE,61,8.0,10.0,95,0.02,,,0.05,VWS V14.01,2013-03-19 20:48:00,
2013-03-19 16:53:00,32.1,30.8,29.67,NE,49,11.0,11.0,95,0.02,,,0.05,VWS V14.01,2013-03-19 20:53:00,
2013-03-19 16:58:00,32.0,30.7,29.67,ENE,78,11.0,11.0,95,0.02,,,0.05,VWS V14.01,2013-03-19 20:58:00,
2013-03-19 17:03:00,32.0,30.7,29.66,ENE,61,8.0,11.0,95,0.02,,,0.05,VWS V14.01,2013-03-19 21:03:00,
2013-03-19 17:08:00,32.0,30.7,29.66,NE,55,6.0,9.0,95,0.01,,,0.05,VWS V14.01,2013-03-19 21:08:00,
2013-03-19 17:13:00,32.0,30.7,29.66,NE,36,6.0,12.0,95,0.02,,,0.06,VWS V14.01,2013-03-19 21:13:00,
2013-03-19 17:18:00,32.0,30.7,29.66,NNE,32,9.0,12.0,95,0.02,,,0.06,VWS V14.01,2013-03-19 21:18:00,
2013-03-19 17:23:00,32.0,30.7,29.66,NE,34,7.0,12.0,95,0.02,,,0.06,VWS V14.01,2013-03-19 21:23:00,
2013-03-19 17:28:00,32.0,30.7,29.67,NE,51,5.0,12.0,95,0.02,,,0.06,VWS V14.01,2013-03-19 21:28:00,
2013-03-19 17:33:00,32.0,30.7,29.67,NNE,23,5.0,12.0,95,0.02,,,0.06,VWS V14.01,2013-03-19 21:33:00,
2013-03-19 17:38:00,32.0,30.7,29.67,NE,40,5.0,8.0,95,0.01,,,0.06,VWS V14.01,2013-03-19 21:38:00,
2013-03-19 17:43:00,32.0,30.7,29.67,NE,34,5.0,10.0,95,0.01,,,0.06,VWS V14.01,2013-03-19 21:43:00,
2013-03-19 17:48:00,31.9,30.6,29.66,NE,44,5.0,10.0,95,0.01,,,0.06,VWS V14.01,2013-03-19 21:48:00,
2013-03-19 17:53:00,31.9,30.6,29.67,NE,56,6.0,10.0,95,0.01,,,0.06,VWS V14.01,2013-03-19 21:53:00,
2013-03-19 17:58:00,31.9,30.6,29.67,NE,55,4.0,10.0,95,0.01,,,0.06,VWS V14.01,2013-03-19 21:58:00,
2013-03-19 18:03:00,31.8,30.5,29.68,ENE,58,9.0,11.0,95,0.01,,,0.06,VWS V14.01,2013-03-19 22:03:00,
2013-03-19 18:08:00,31.7,30.4,29.67,ENE,60,8.0,8.0,95,0.01,,,0.06,VWS V14.01,2013-03-19 22:08:00,
2013-03-19 18:13:00,31.7,30.4,29.67,ENE,63,7.0,9.0,95,0.01,,,0.06,VWS V14.01,2013-03-19 22:13:00,
2013-03-19 18:18:00,31.6,30.3,29.68,NE,39,4.0,9.0,95,0.02,,,0.07,VWS V14.01,2013-03-19 22:18:00,
2013-03-19 18:23:00,31.6,30.3,29.68,NNE,30,5.0,9.0,95,0.02,,,0.07,VWS V14.01,2013-03-19 22:23:00,
2013-03-19 18:28:00,31.5,30.2,29.68,NNE,19,6.0,9.0,95,0.02,,,0.07,VWS V14.01,2013-03-19 22:28:00,
2013-03-19 18:33:00,31.5,30.2,29.68,NE,34,3.0,9.0,95,0.02,,,0.07,VWS V14.01,2013-03-19 22:33:00,
2013-03-19 18:38:00,31.5,30.2,29.69,WNW,294,5.0,7.0,95,0.01,,,0.07,VWS V14.01,2013-03-19 22:38:00,
2013-03-19 18:43:00,31.5,30.2,29.69,North,9,2.0,7.0,95,0.01,,,0.07,VWS V14.01,2013-03-19 22:43:00,
2013-03-19 18:48:00,31.4,30.1,29.69,NNW,333,3.0,7.0,95,0.01,,,0.07,VWS V14.01,2013-03-19 22:48:00,
2013-03-19 18:53:00,31.4,30.1,29.69,ENE,58,2.0,7.0,95,0.01,,,0.07,VWS V14.01,2013-03-19 22:53:00,
2013-03-19 18:58:00,31.3,30.0,29.68,NE,50,5.0,9.0,95,0.01,,,0.07,VWS V14.01,2013-03-19 22:58:00,
2013-03-19 19:03:00,31.3,30.0,29.68,NE,42,4.0,9.0,95,0.01,,,0.07,VWS V14.01,2013-03-19 23:03:00,
2013-03-19 19:08:00,31.2,29.9,29.68,ENE,59,2.0,6.0,95,0.01,,,0.07,VWS V14.01,2013-03-19 23:08:00,
2013-03-19 19:13:00,31.1,29.8,29.69,NW,316,3.0,6.0,95,0.01,,,0.07,VWS V14.01,2013-03-19 23:13:00,
2013-03-19 19:18:00,31.1,29.8,29.69,NNW,337,2.0,6.0,95,0.01,,,0.07,VWS V14.01,2013-03-19 23:18:00,
2013-03-19 19:23:00,31.0,29.7,29.69,NW,304,2.0,8.0,95,0.01,,,0.07,VWS V14.01,2013-03-19 23:23:00,
2013-03-19 19:28:00,31.0,29.7,29.69,NNW,342,4.0,8.0,95,0.01,,,0.07,VWS V14.01,2013-03-19 23:28:00,
2013-03-19 19:33:00,31.0,29.7,29.68,NNW,347,1.0,8.0,95,0.01,,,0.07,VWS V14.01,2013-03-19 23:33:00,
2013-03-19 19:38:00,30.9,29.6,29.69,NNW,338,4.0,5.0,95,0.00,,,0.07,VWS V14.01,2013-03-19 23:38:00,
2013-03-19 19:43:00,30.9,29.6,29.69,NNW,327,4.0,5.0,95,0.00,,,0.07,VWS V14.01,2013-03-19 23:43:00,
2013-03-19 19:48:00,30.8,29.5,29.69,NW,326,3.0,7.0,95,0.00,,,0.07,VWS V14.01,2013-03-19 23:48:00,
2013-03-19 19:53:00,30.8,29.5,29.69,NW,304,3.0,7.0,95,0.00,,,0.07,VWS V14.01,2013-03-19 23:53:00,
2013-03-19 19:58:00,30.8,29.5,29.69,NW,315,5.0,8.0,95,0.00,,,0.07,VWS V14.01,2013-03-19 23:58:00,
2013-03-19 20:03:00,30.8,29.3,29.68,NW,319,5.0,8.0,94,0.00,,,0.07,VWS V14.01,2013-03-20 00:03:00,
2013-03-19 20:08:00,30.8,29.3,29.69,NNW,336,8.0,10.0,94,0.00,,,0.07,VWS V14.01,2013-03-20 00:08:00,
2013-03-19 20:13:00,30.8,29.3,29.70,North,10,5.0,10.0,94,0.00,,,0.07,VWS V14.01,2013-03-20 00:13:00,
2013-03-19 20:18:00,30.7,29.2,29.70,North,355,5.0,10.0,94,0.00,,,0.07,VWS V14.01,2013-03-20 00:18:00,
2013-03-19 20:23:00,30.7,29.2,29.70,WNW,302,3.0,10.0,94,0.00,,,0.07,VWS V14.01,2013-03-20 00:23:00,
2013-03-19 20:28:00,30.7,29.2,29.70,NW,316,2.0,10.0,94,0.00,,,0.07,VWS V14.01,2013-03-20 00:28:00,
2013-03-19 20:33:00,30.6,28.8,29.71,WNW,299,4.0,10.0,93,0.00,,,0.07,VWS V14.01,2013-03-20 00:33:00,
2013-03-19 20:38:00,30.6,28.8,29.71,WNW,286,3.0,7.0,93,0.00,,,0.07,VWS V14.01,2013-03-20 00:38:00,
2013-03-19 20:43:00,30.7,28.9,29.72,NNW,338,3.0,7.0,93,0.00,,,0.07,VWS V14.01,2013-03-20 00:43:00,
2013-03-19 20:48:00,30.7,28.9,29.72,West,267,3.0,7.0,93,0.00,,,0.07,VWS V14.01,2013-03-20 00:48:00,
2013-03-19 20:53:00,30.7,28.9,29.73,West,270,3.0,7.0,93,0.00,,,0.07,VWS V14.01,2013-03-20 00:53:00,
2013-03-19 20:58:00,30.7,28.9,29.73,WNW,294,7.0,7.0,93,0.00,,,0.07,VWS V14.01,2013-03-20 00:58:00,
2013-03-19 21:03:00,30.7,28.9,29.73,NW,316,5.0,7.0,93,0.00,,,0.07,VWS V14.01,2013-03-20 01:03:00,
2013-03-19 21:08:00,30.7,28.9,29.74,NW,306,2.0,11.0,93,0.00,,,0.07,VWS V14.01,2013-03-20 01:08:00,
2013-03-19 21:13:00,30.7,28.9,29.74,WNW,294,6.0,11.0,93,0.00,,,0.07,VWS V14.01,2013-03-20 01:13:00,
2013-03-19 21:18:00,30.6,28.8,29.73,NW,317,3.0,11.0,93,0.00,,,0.07,VWS V14.01,2013-03-20 01:18:00,
2013-03-19 21:23:00,30.5,28.7,29.73,WNW,289,3.0,11.0,93,0.00,,,0.07,VWS V14.01,2013-03-20 01:23:00,
2013-03-19 21:28:00,30.4,28.6,29.73,WNW,288,3.0,11.0,93,0.00,,,0.07,VWS V14.01,2013-03-20 01:28:00,
2013-03-19 21:33:00,30.3,28.8,29.73,NW,319,4.0,11.0,94,0.00,,,0.07,VWS V14.01,2013-03-20 01:33:00,
2013-03-19 21:38:00,30.3,28.5,29.73,WNW,301,7.0,7.0,93,0.00,,,0.07,VWS V14.01,2013-03-20 01:38:00,
2013-03-19 21:43:00,30.2,28.4,29.72,NW,325,4.0,8.0,93,0.00,,,0.07,VWS V14.01,2013-03-20 01:43:00,
2013-03-19 21:48:00,30.1,28.3,29.72,NW,313,1.0,8.0,93,0.00,,,0.07,VWS V14.01,2013-03-20 01:48:00,
2013-03-19 21:53:00,30.0,28.0,29.72,NW,315,3.0,8.0,92,0.00,,,0.07,VWS V14.01,2013-03-20 01:53:00,
2013-03-19 21:58:00,29.9,27.9,29.73,NW,306,4.0,8.0,92,0.00,,,0.07,VWS V14.01,2013-03-20 01:58:00,
2013-03-19 22:03:00,29.7,27.7,29.73,WNW,301,4.0,8.0,92,0.00,,,0.07,VWS V14.01,2013-03-20 02:03:00,
2013-03-19 22:08:00,29.5,27.5,29.72,NNW,344,4.0,6.0,92,0.00,,,0.07,VWS V14.01,2013-03-20 02:08:00,
2013-03-19 22:13:00,29.2,27.2,29.72,NW,323,4.0,6.0,92,0.00,,,0.07,VWS V14.01,2013-03-20 02:13:00,
2013-03-19 22:18:00,29.0,27.0,29.72,NW,305,2.0,6.0,92,0.00,,,0.07,VWS V14.01,2013-03-20 02:18:00,
2013-03-19 22:23:00,28.9,26.9,29.73,NW,326,3.0,6.0,92,0.00,,,0.07,VWS V14.01,2013-03-20 02:23:00,
2013-03-19 22:28:00,28.7,26.7,29.73,NW,323,4.0,6.0,92,0.00,,,0.07,VWS V14.01,2013-03-20 02:28:00,
2013-03-19 22:33:00,28.6,26.6,29.73,NNW,333,1.0,6.0,92,0.00,,,0.07,VWS V14.01,2013-03-20 02:33:00,
2013-03-19 22:38:00,28.4,26.4,29.73,NNW,327,3.0,6.0,92,0.00,,,0.07,VWS V14.01,2013-03-20 02:38:00,
2013-03-19 22:43:00,28.3,26.3,29.73,WNW,298,3.0,8.0,92,0.00,,,0.07,VWS V14.01,2013-03-20 02:43:00,
2013-03-19 22:48:00,28.3,26.3,29.72,North,355,4.0,8.0,92,0.00,,,0.07,VWS V14.01,2013-03-20 02:48:00,
2013-03-19 22:53:00,28.1,26.1,29.72,NNW,334,5.0,8.0,92,0.00,,,0.07,VWS V14.01,2013-03-20 02:53:00,
2013-03-19 22:58:00,28.1,26.1,29.73,West,273,3.0,8.0,92,0.00,,,0.07,VWS V14.01,2013-03-20 02:58:00,
2013-03-19 23:03:00,28.0,26.2,29.72,NW,311,3.0,8.0,93,0.00,,,0.07,VWS V14.01,2013-03-20 03:03:00,
2013-03-19 23:08:00,28.0,26.0,29.73,WNW,292,4.0,6.0,92,0.00,,,0.07,VWS V14.01,2013-03-20 03:08:00,
2013-03-19 23:13:00,27.9,26.1,29.73,NW,304,1.0,6.0,93,0.00,,,0.07,VWS V14.01,2013-03-20 03:13:00,
2013-03-19 23:18:00,28.0,26.2,29.73,WNW,294,3.0,8.0,93,0.00,,,0.07,VWS V14.01,2013-03-20 03:18:00,
2013-03-19 23:23:00,28.0,26.2,29.73,WNW,296,6.0,8.0,93,0.00,,,0.07,VWS V14.01,2013-03-20 03:23:00,
2013-03-19 23:28:00,28.2,26.2,29.74,WNW,289,4.0,8.0,92,0.00,,,0.07,VWS V14.01,2013-03-20 03:28:00,
2013-03-19 23:33:00,28.2,26.2,29.74,WNW,294,2.0,8.0,92,0.00,,,0.07,VWS V14.01,2013-03-20 03:33:00,
2013-03-19 23:38:00,28.3,26.3,29.74,NW,323,1.0,6.0,92,0.00,,,0.07,VWS V14.01,2013-03-20 03:38:00,
2013-03-19 23:43:00,28.3,26.3,29.74,WNW,291,4.0,6.0,92,0.00,,,0.07,VWS V14.01,2013-03-20 03:43:00,
2013-03-19 23:48:00,28.3,26.3,29.74,NW,304,2.0,7.0,92,0.00,,,0.07,VWS V14.01,2013-03-20 03:48:00,
2013-03-19 23:53:00,28.3,26.3,29.74,NW,322,3.0,7.0,92,0.00,,,0.07,VWS V14.01,2013-03-20 03:53:00,
2013-03-19 23:58:00,28.3,26.3,29.74,WNW,294,4.0,7.0,92,0.00,,,0.07,VWS V14.01,2013-03-20 03:58:00,